M I D A S
Marine Information and Data Acquisition System
Tripno 1884 of the Zeeleeuw from 2010-05-18 07:04:42 to 2010-05-18 13:57:27
Back to CruiseResearch ActivitiesStationsMapUnderway DataData graphs

EquipmentUnitsComments
TimeDGPSUTC
LatitudeDGPSDM.mWGS84
LongitudeDGPSDM.mWGS84
SpeedMeteo Stationm/sRelative wind speed
DirectionMeteo StationdegRelative wind direction
TemperatureMeteo Stationdeg CelciusAir temperature
PressureMeteo StationPaAtmospheric pressure
HumidityMeteo Station%Relative humidity
Missing or incorrect values are displayed as -999
Metereological data collected by the RV Zeeleeuw from 2010-05-18 07:07:35 to 2010-05-18 14:02:46
                                                                                    Next 1000 lines
Time Latitude Longitude Speed Direction Temperature Pressure Humidity
2010-05-18 07:07:45 51°13.66 2°55.956 -999 355 10.9 102920 37
2010-05-18 07:07:50 51°13.661 2°55.953 -999 355 10.9 102920 37
2010-05-18 07:07:54 51°13.662 2°55.95 -999 359 10.9 102920 37
2010-05-18 07:08:00 51°13.663 2°55.946 -999 1 10.9 102920 37
2010-05-18 07:08:05 51°13.665 2°55.942 -999 11 10.9 102920 37
2010-05-18 07:08:11 51°13.666 2°55.936 -999 18 10.9 102920 37
2010-05-18 07:08:17 51°13.668 2°55.93 0.1 18 10.9 102920 37
2010-05-18 07:08:22 51°13.67 2°55.925 0.1 18 10.9 102920 37
2010-05-18 07:08:28 51°13.671 2°55.919 -999 18 10.9 102920 37
2010-05-18 07:08:33 51°13.673 2°55.913 -999 18 10.9 102920 37
2010-05-18 07:08:38 51°13.674 2°55.907 -999 19 10.9 102920 37
2010-05-18 07:08:43 51°13.676 2°55.901 -999 35 10.9 102920 37
2010-05-18 07:08:49 51°13.678 2°55.893 0.1 42 10.9 102920 37
2010-05-18 07:08:53 51°13.679 2°55.887 0.3 37 10.9 102920 37
2010-05-18 07:08:58 51°13.681 2°55.88 0.2 83 10.8 102920 37
2010-05-18 07:09:03 51°13.682 2°55.873 0.1 37 10.8 102920 37
2010-05-18 07:09:08 51°13.684 2°55.866 0.1 78 10.9 102920 37
2010-05-18 07:09:13 51°13.685 2°55.859 0.1 35 10.8 102920 37
2010-05-18 07:09:19 51°13.687 2°55.85 -999 78 10.8 102920 37
2010-05-18 07:09:23 51°13.688 2°55.844 -999 35 10.8 102920 37
2010-05-18 07:09:28 51°13.689 2°55.837 -999 78 10.8 102920 36
2010-05-18 07:09:33 51°13.69 2°55.829 -999 36 10.8 102920 36
2010-05-18 07:09:39 51°13.692 2°55.82 -999 78 10.8 102920 37
2010-05-18 07:09:44 51°13.693 2°55.812 0.1 32 10.8 102920 37
2010-05-18 07:09:48 51°13.694 2°55.806 0.1 78 10.8 102920 37
2010-05-18 07:09:53 51°13.695 2°55.798 0.1 35 10.8 102920 37
2010-05-18 07:09:59 51°13.696 2°55.789 -999 78 10.8 102920 37
2010-05-18 07:10:04 51°13.697 2°55.782 -999 35 10.8 102920 37
2010-05-18 07:10:09 51°13.697 2°55.775 -999 78 10.8 102920 37
2010-05-18 07:10:13 51°13.698 2°55.769 -999 35 10.8 102920 37
2010-05-18 07:10:18 51°13.698 2°55.763 -999 36 10.8 102920 37
2010-05-18 07:10:24 51°13.698 2°55.755 -999 36 10.8 102920 37
2010-05-18 07:10:28 51°13.699 2°55.751 0.6 19 10.7 102920 37
2010-05-18 07:10:33 51°13.699 2°55.747 0.1 11 10.7 102920 37
2010-05-18 07:10:37 51°13.699 2°55.745 0.1 4 10.7 102920 37
2010-05-18 07:10:42 51°13.699 2°55.742 0.1 4 10.7 102920 37
2010-05-18 07:10:48 51°13.7 2°55.74 -999 4 10.7 102920 39
2010-05-18 07:10:53 51°13.7 2°55.739 -999 4 10.7 102920 39
2010-05-18 07:10:57 51°13.7 2°55.738 -999 357 10.7 102920 37
2010-05-18 07:11:02 51°13.701 2°55.737 -999 357 10.7 102920 37
2010-05-18 07:11:07 51°13.701 2°55.737 -999 357 10.7 102920 37
2010-05-18 07:11:12 51°13.702 2°55.736 -999 357 10.7 102920 37
2010-05-18 07:11:17 51°13.703 2°55.736 -999 357 10.7 102920 37
2010-05-18 07:11:21 51°13.703 2°55.737 -999 357 10.7 102920 37
2010-05-18 07:11:26 51°13.704 2°55.737 -999 360 10.7 102920 37
2010-05-18 07:11:31 51°13.706 2°55.737 -999 -999 10.7 102920 37
2010-05-18 07:11:36 51°13.707 2°55.738 -999 -999 10.7 102920 37
2010-05-18 07:11:41 51°13.708 2°55.738 -999 -999 10.7 102920 37
2010-05-18 07:11:45 51°13.709 2°55.739 -999 1 10.7 102920 37
2010-05-18 07:11:50 51°13.711 2°55.739 -999 1 10.7 102920 37
2010-05-18 07:11:55 51°13.713 2°55.74 -999 1 10.7 102920 37
2010-05-18 07:12:00 51°13.715 2°55.74 -999 1 10.7 102920 36
2010-05-18 07:12:05 51°13.717 2°55.74 -999 1 10.7 102920 36
2010-05-18 07:12:09 51°13.719 2°55.74 -999 2 10.7 102920 36
2010-05-18 07:12:15 51°13.722 2°55.74 -999 2 10.6 102920 37
2010-05-18 07:12:20 51°13.724 2°55.739 -999 351 10.6 102920 37
2010-05-18 07:12:25 51°13.727 2°55.739 -999 350 10.6 102920 37
2010-05-18 07:12:30 51°13.729 2°55.738 -999 350 10.6 102920 37
2010-05-18 07:12:34 51°13.731 2°55.737 -999 357 10.6 102920 37
2010-05-18 07:12:40 51°13.735 2°55.735 -999 358 10.7 102920 37
2010-05-18 07:12:45 51°13.738 2°55.733 -999 357 10.7 102920 37
2010-05-18 07:12:50 51°13.741 2°55.73 -999 357 10.7 102920 37
2010-05-18 07:12:55 51°13.745 2°55.727 -999 282 10.7 102920 37
2010-05-18 07:13:00 51°13.749 2°55.722 -999 339 10.7 102920 37
2010-05-18 07:13:05 51°13.755 2°55.717 -999 282 10.7 102920 37
2010-05-18 07:13:10 51°13.761 2°55.711 -999 336 10.7 102920 37
2010-05-18 07:13:15 51°13.767 2°55.704 -999 282 10.7 102920 37
2010-05-18 07:13:20 51°13.775 2°55.696 0.8 328 10.7 102920 37
2010-05-18 07:13:25 51°13.782 2°55.688 2 282 10.7 102920 37
2010-05-18 07:13:30 51°13.791 2°55.68 2 331 10.7 102920 37
2010-05-18 07:13:35 51°13.8 2°55.671 1.8 278 10.7 102920 37
2010-05-18 07:13:40 51°13.809 2°55.661 2.4 331 10.7 102920 37
2010-05-18 07:13:45 51°13.818 2°55.652 2.5 278 10.7 102920 36
2010-05-18 07:13:49 51°13.826 2°55.645 2.5 331 10.7 102920 36
2010-05-18 07:13:55 51°13.839 2°55.634 2.5 279 10.7 102920 36
2010-05-18 07:14:00 51°13.85 2°55.626 2.7 330 10.7 102920 36
2010-05-18 07:14:05 51°13.861 2°55.618 2.9 279 10.7 102920 35
2010-05-18 07:14:10 51°13.872 2°55.61 2.6 332 10.7 102920 35
2010-05-18 07:14:15 51°13.883 2°55.602 3.2 285 10.6 102920 35
2010-05-18 07:14:20 51°13.893 2°55.593 2.7 327 10.6 102920 39
2010-05-18 07:14:25 51°13.904 2°55.583 2.5 280 10.6 102920 39
2010-05-18 07:14:29 51°13.913 2°55.575 2.9 328 10.6 102920 39
2010-05-18 07:14:35 51°13.925 2°55.563 3.2 278 10.6 102920 35
2010-05-18 07:14:40 51°13.935 2°55.553 3.5 331 10.6 102920 35
2010-05-18 07:14:45 51°13.946 2°55.543 3.1 283 10.6 102920 37
2010-05-18 07:14:50 51°13.956 2°55.533 2.8 328 10.6 102920 37
2010-05-18 07:14:54 51°13.965 2°55.526 2.9 280 10.6 102920 36
2010-05-18 07:15:00 51°13.978 2°55.515 2.6 332 10.6 102920 36
2010-05-18 07:15:05 51°13.989 2°55.506 2.5 284 10.6 102920 37
2010-05-18 07:15:10 51°14 2°55.497 2.1 333 10.6 102920 37
2010-05-18 07:15:15 51°14.01 2°55.488 2.7 286 10.6 102920 39
2010-05-18 07:15:20 51°14.021 2°55.479 2.7 333 10.6 102920 39
2010-05-18 07:15:25 51°14.032 2°55.47 2.6 286 10.6 102920 35
2010-05-18 07:15:30 51°14.043 2°55.461 2.3 330 10.5 102920 39
2010-05-18 07:15:35 51°14.054 2°55.453 1.8 284 10.5 102920 39
2010-05-18 07:15:40 51°14.065 2°55.444 2.1 332 10.5 102920 39
2010-05-18 07:15:45 51°14.076 2°55.436 2.7 282 10.5 102920 37
2010-05-18 07:15:50 51°14.087 2°55.427 2.6 332 10.5 102920 37
2010-05-18 07:15:55 51°14.098 2°55.418 2.5 277 10.5 102920 39
2010-05-18 07:16:00 51°14.11 2°55.409 2.7 337 10.5 102920 39
2010-05-18 07:16:05 51°14.121 2°55.399 2.5 282 10.5 102920 35
2010-05-18 07:16:09 51°14.13 2°55.392 2.9 334 10.5 102920 35
2010-05-18 07:16:13 51°14.139 2°55.384 3 279 10.5 102920 38
2010-05-18 07:16:19 51°14.153 2°55.372 3.6 333 10.5 102920 38
2010-05-18 07:16:25 51°14.168 2°55.361 3.2 284 10.5 102920 37
2010-05-18 07:16:30 51°14.18 2°55.351 3.7 331 10.5 102920 37
2010-05-18 07:16:34 51°14.19 2°55.343 4.2 284 10.5 102920 35
2010-05-18 07:16:40 51°14.205 2°55.331 4.4 332 10.5 102920 36
2010-05-18 07:16:45 51°14.218 2°55.32 4 283 10.5 102920 36
2010-05-18 07:16:50 51°14.231 2°55.309 4.1 332 10.5 102920 36
2010-05-18 07:16:54 51°14.241 2°55.3 4.7 285 10.5 102920 38
2010-05-18 07:17:00 51°14.257 2°55.285 4.1 333 10.5 102920 36
2010-05-18 07:17:05 51°14.27 2°55.272 4.3 285 10.5 102920 36
2010-05-18 07:17:10 51°14.283 2°55.259 4.7 331 10.5 102920 36
2010-05-18 07:17:14 51°14.294 2°55.248 4.6 284 10.5 102920 35
2010-05-18 07:17:20 51°14.311 2°55.231 4.5 329 10.5 102920 35
2010-05-18 07:17:25 51°14.325 2°55.217 4.7 280 10.5 102920 36
2010-05-18 07:17:30 51°14.339 2°55.202 4.9 330 10.5 102920 35
2010-05-18 07:17:35 51°14.353 2°55.187 4.7 285 10.5 102920 35
2010-05-18 07:17:40 51°14.367 2°55.172 5 329 10.5 102920 35
2010-05-18 07:17:45 51°14.382 2°55.156 5.2 280 10.4 102910 36
2010-05-18 07:17:50 51°14.396 2°55.141 4.8 330 10.4 102920 38
2010-05-18 07:17:55 51°14.411 2°55.127 4.9 284 10.4 102920 38
2010-05-18 07:18:00 51°14.427 2°55.113 4.8 328 10.4 102920 38
2010-05-18 07:18:05 51°14.442 2°55.1 5.4 280 10.4 102920 35
2010-05-18 07:18:10 51°14.458 2°55.088 5.2 331 10.4 102920 35
2010-05-18 07:18:14 51°14.471 2°55.079 5.3 285 10.4 102910 35
2010-05-18 07:18:20 51°14.491 2°55.065 5.3 332 10.4 102910 35
2010-05-18 07:18:25 51°14.508 2°55.054 5.2 284 10.4 102920 38
2010-05-18 07:18:30 51°14.524 2°55.042 5.4 331 10.4 102920 38
2010-05-18 07:18:35 51°14.54 2°55.027 5.6 285 10.4 102920 36
2010-05-18 07:18:40 51°14.553 2°55.008 5.5 328 10.4 102920 36
2010-05-18 07:18:45 51°14.565 2°54.985 5.9 279 10.4 102910 36
2010-05-18 07:18:50 51°14.579 2°54.963 5.3 329 10.4 102910 36
2010-05-18 07:18:55 51°14.592 2°54.942 6.1 283 10.4 102920 36
2010-05-18 07:19:00 51°14.606 2°54.922 5.2 327 10.4 102910 36
2010-05-18 07:19:05 51°14.62 2°54.903 5.8 278 10.4 102910 36
2010-05-18 07:19:10 51°14.634 2°54.884 5.9 329 10.4 102910 36
2010-05-18 07:19:14 51°14.646 2°54.868 5.8 279 10.4 102910 36
2010-05-18 07:19:20 51°14.664 2°54.846 5.6 329 10.4 102910 36
2010-05-18 07:19:25 51°14.678 2°54.827 5.3 277 10.4 102910 35
2010-05-18 07:19:30 51°14.694 2°54.81 5.6 329 10.4 102910 35
2010-05-18 07:19:35 51°14.709 2°54.795 5.3 283 10.4 102910 36
2010-05-18 07:19:40 51°14.726 2°54.781 5.5 330 10.4 102910 36
2010-05-18 07:19:45 51°14.742 2°54.767 5.2 279 10.4 102910 36
2010-05-18 07:19:50 51°14.758 2°54.754 5.4 330 10.4 102910 35
2010-05-18 07:19:54 51°14.771 2°54.743 5.4 282 10.4 102910 35
2010-05-18 07:20:00 51°14.791 2°54.726 5.2 329 10.4 102910 35
2010-05-18 07:20:05 51°14.807 2°54.712 5.5 284 10.4 102920 37
2010-05-18 07:20:10 51°14.823 2°54.697 5.3 330 10.4 102920 36
2010-05-18 07:20:15 51°14.839 2°54.682 5.4 284 10.4 102920 36
2010-05-18 07:20:20 51°14.855 2°54.666 5.1 330 10.4 102920 36
2010-05-18 07:20:25 51°14.871 2°54.65 5.1 279 10.4 102920 36
2010-05-18 07:20:30 51°14.886 2°54.634 5.3 331 10.4 102920 36
2010-05-18 07:20:34 51°14.899 2°54.621 5.2 283 10.4 102910 38
2010-05-18 07:20:40 51°14.917 2°54.602 5.5 331 10.4 102910 38
2010-05-18 07:20:45 51°14.933 2°54.586 5.2 284 10.4 102920 36
2010-05-18 07:20:50 51°14.948 2°54.569 4.9 332 10.4 102920 36
2010-05-18 07:20:55 51°14.963 2°54.553 5.2 279 10.4 102910 35
2010-05-18 07:21:00 51°14.978 2°54.537 5.3 331 10.4 102910 35
2010-05-18 07:21:05 51°14.993 2°54.52 5 283 10.4 102920 36
2010-05-18 07:21:10 51°15.008 2°54.504 5.1 331 10.4 102920 36
2010-05-18 07:21:14 51°15.021 2°54.49 5 283 10.4 102920 38
2010-05-18 07:21:20 51°15.039 2°54.47 4.9 331 10.4 102920 38
2010-05-18 07:21:25 51°15.054 2°54.453 5.1 284 10.4 102910 36
2010-05-18 07:21:30 51°15.07 2°54.436 5.5 331 10.4 102910 36
2010-05-18 07:21:35 51°15.085 2°54.419 5.2 285 10.4 102920 36
2010-05-18 07:21:40 51°15.1 2°54.402 5.2 332 10.4 102920 36
2010-05-18 07:21:45 51°15.116 2°54.386 5.5 282 10.4 102920 36
2010-05-18 07:21:50 51°15.131 2°54.369 5.5 333 10.4 102920 36
2010-05-18 07:21:55 51°15.147 2°54.352 5 279 10.4 102920 36
2010-05-18 07:22:00 51°15.162 2°54.335 5.2 334 10.4 102920 36
2010-05-18 07:22:05 51°15.178 2°54.317 5.1 284 10.4 102920 36
2010-05-18 07:22:10 51°15.193 2°54.3 5.1 333 10.4 102920 38
2010-05-18 07:22:15 51°15.208 2°54.282 4.7 283 10.4 102920 38
2010-05-18 07:22:20 51°15.223 2°54.264 5.1 334 10.4 102920 38
2010-05-18 07:22:25 51°15.238 2°54.245 5.5 285 10.4 102920 36
2010-05-18 07:22:30 51°15.254 2°54.227 4.9 335 10.3 102910 38
2010-05-18 07:22:35 51°15.269 2°54.208 5 278 10.3 102910 38
2010-05-18 07:22:40 51°15.283 2°54.19 5.2 334 10.3 102910 38
2010-05-18 07:22:45 51°15.298 2°54.171 4.9 284 10.3 102920 36
2010-05-18 07:22:50 51°15.313 2°54.152 4.7 332 10.3 102920 36
2010-05-18 07:22:55 51°15.328 2°54.133 5 280 10.3 102920 36
2010-05-18 07:23:14 51°15.385 2°54.061 4.8 280 10.3 102930 36
2010-05-18 07:23:20 51°15.404 2°54.039 5.5 331 10.3 102930 36
2010-05-18 07:23:34 51°15.446 2°53.987 5.4 332 10.4 102920 37
2010-05-18 07:23:39 51°15.461 2°53.968 4.9 332 10.4 102920 37
2010-05-18 07:25:11 51°15.731 2°53.607 4.4 334 10.3 102920 37
2010-05-18 07:26:15 51°15.918 2°53.357 4.8 278 10.3 102920 34
2010-05-18 07:26:20 51°15.933 2°53.338 4.4 330 10.3 102920 34
2010-05-18 07:26:25 51°15.947 2°53.319 4.9 285 10.4 102920 38
2010-05-18 07:26:30 51°15.962 2°53.299 4.8 331 10.4 102920 38
2010-05-18 07:26:34 51°15.974 2°53.284 5 283 10.3 102920 38
2010-05-18 07:26:40 51°15.991 2°53.261 4.6 330 10.3 102910 36
2010-05-18 07:26:45 51°16.007 2°53.244 5.1 281 10.3 102910 36
2010-05-18 07:26:50 51°16.023 2°53.226 5.3 330 10.3 102910 36
2010-05-18 07:26:55 51°16.039 2°53.212 4.7 280 10.3 102920 36
2010-05-18 07:27:00 51°16.055 2°53.195 4.4 330 10.3 102920 38
2010-05-18 07:27:05 51°16.071 2°53.182 5.2 282 10.3 102920 38
2010-05-18 07:27:10 51°16.088 2°53.167 4.7 330 10.3 102920 38
2010-05-18 07:27:14 51°16.101 2°53.156 5 284 10.3 102920 35
2010-05-18 07:27:20 51°16.121 2°53.139 4.7 331 10.4 102920 38
2010-05-18 07:27:25 51°16.138 2°53.127 4.6 277 10.4 102920 38
2010-05-18 07:27:30 51°16.155 2°53.113 4.8 330 10.4 102920 36
2010-05-18 07:27:35 51°16.172 2°53.101 4.8 278 10.4 102920 36
2010-05-18 07:27:40 51°16.189 2°53.088 5.3 331 10.4 102920 36
2010-05-18 07:27:45 51°16.207 2°53.076 4.5 280 10.4 102920 38
2010-05-18 07:27:50 51°16.224 2°53.063 4.8 331 10.4 102920 37
2010-05-18 07:27:55 51°16.241 2°53.05 5.2 331 10.4 102920 37
2010-05-18 07:28:00 51°16.258 2°53.037 4.9 329 10.4 102920 37
2010-05-18 07:28:05 51°16.275 2°53.027 4.8 281 10.4 102920 35
2010-05-18 07:28:10 51°16.293 2°53.014 4.4 331 10.4 102920 35
2010-05-18 07:28:14 51°16.307 2°53.006 4.3 285 10.4 102920 38
2010-05-18 07:28:20 51°16.328 2°52.993 4.8 329 10.4 102920 38
2010-05-18 07:28:25 51°16.346 2°52.983 4.9 284 10.4 102920 37
2010-05-18 07:28:30 51°16.363 2°52.973 4.5 331 10.4 102920 38
2010-05-18 07:28:35 51°16.381 2°52.962 4.8 277 10.4 102920 38
2010-05-18 07:28:40 51°16.399 2°52.952 4.9 334 10.4 102920 38
2010-05-18 07:28:45 51°16.416 2°52.942 4.5 283 10.4 102920 38
2010-05-18 07:28:50 51°16.434 2°52.932 4.3 331 10.4 102920 38
2010-05-18 07:28:55 51°16.452 2°52.922 4.8 279 10.4 102920 38
2010-05-18 07:29:00 51°16.47 2°52.911 4.5 332 10.4 102920 38
2010-05-18 07:29:05 51°16.487 2°52.901 4.6 277 10.4 102920 38
2010-05-18 07:29:10 51°16.505 2°52.89 4.8 332 10.4 102920 38
2010-05-18 07:29:14 51°16.519 2°52.882 5.2 284 10.3 102920 36
2010-05-18 07:29:20 51°16.54 2°52.869 5.3 332 10.4 102920 35
2010-05-18 07:29:25 51°16.558 2°52.859 5 283 10.4 102920 35
2010-05-18 07:29:30 51°16.575 2°52.849 5 331 10.4 102920 35
2010-05-18 07:29:35 51°16.593 2°52.838 4.7 284 10.3 102920 38
2010-05-18 07:29:40 51°16.611 2°52.828 5 330 10.3 102920 38
2010-05-18 07:29:45 51°16.628 2°52.817 4.8 285 10.4 102920 38
2010-05-18 07:29:50 51°16.646 2°52.807 5.1 332 10.3 102920 36
2010-05-18 07:29:55 51°16.664 2°52.797 5.3 332 10.3 102920 36
2010-05-18 07:30:00 51°16.681 2°52.786 5.1 332 10.3 102920 36
2010-05-18 07:30:05 51°16.699 2°52.776 4.9 280 10.3 102920 38
2010-05-18 07:30:10 51°16.717 2°52.766 5.1 334 10.3 102920 38
2010-05-18 07:30:14 51°16.731 2°52.758 5.2 279 10.3 102920 38
2010-05-18 07:30:20 51°16.752 2°52.745 5.1 334 10.3 102920 38
2010-05-18 07:30:25 51°16.77 2°52.735 5.1 283 10.3 102920 38
2010-05-18 07:30:30 51°16.787 2°52.725 5 334 10.3 102920 36
2010-05-18 07:30:35 51°16.804 2°52.715 5.2 279 10.3 102920 36
2010-05-18 07:30:40 51°16.821 2°52.704 5.1 333 10.3 102920 36
2010-05-18 07:30:45 51°16.839 2°52.694 5.6 279 10.3 102920 35
2010-05-18 07:30:50 51°16.856 2°52.683 5.3 333 10.3 102930 36
2010-05-18 07:30:55 51°16.874 2°52.673 5.2 282 10.3 102930 36
2010-05-18 07:31:00 51°16.891 2°52.662 5.1 333 10.3 102930 36
2010-05-18 07:31:05 51°16.908 2°52.651 5 283 10.3 102930 37
2010-05-18 07:31:10 51°16.926 2°52.641 5.3 333 10.3 102930 37
2010-05-18 07:31:15 51°16.944 2°52.63 5.3 279 10.3 102930 36
2010-05-18 07:31:20 51°16.961 2°52.619 5.3 334 10.3 102930 36
2010-05-18 07:31:25 51°16.979 2°52.609 5.3 284 10.3 102920 36
2010-05-18 07:31:30 51°16.997 2°52.599 5.5 335 10.3 102920 36
2010-05-18 07:31:35 51°17.014 2°52.588 5.1 279 10.3 102920 35
2010-05-18 07:31:40 51°17.032 2°52.578 5.3 335 10.3 102920 35
2010-05-18 07:31:45 51°17.05 2°52.567 5 283 10.3 102920 36
2010-05-18 07:31:50 51°17.067 2°52.557 5 333 10.3 102920 36
2010-05-18 07:31:55 51°17.085 2°52.546 5.3 334 10.3 102920 38
2010-05-18 07:32:00 51°17.102 2°52.536 4.7 335 10.3 102930 36
2010-05-18 07:32:05 51°17.12 2°52.525 5.1 285 10.3 102930 36
2010-05-18 07:32:10 51°17.138 2°52.514 5.3 334 10.3 102930 36
2010-05-18 07:32:14 51°17.152 2°52.506 5.3 282 10.3 102920 37
2010-05-18 07:32:20 51°17.173 2°52.493 5 334 10.3 102920 37
2010-05-18 07:32:25 51°17.191 2°52.482 5.3 285 10.3 102920 36
2010-05-18 07:32:30 51°17.209 2°52.472 5.2 333 10.3 102930 38
2010-05-18 07:32:35 51°17.226 2°52.461 5.3 284 10.3 102930 38
2010-05-18 07:32:40 51°17.244 2°52.451 4.8 334 10.3 102930 38
2010-05-18 07:32:45 51°17.262 2°52.441 5.2 278 10.3 102930 35
2010-05-18 07:32:50 51°17.28 2°52.431 5 333 10.3 102920 36
2010-05-18 07:32:55 51°17.298 2°52.42 4.8 280 10.3 102920 36
2010-05-18 07:33:00 51°17.316 2°52.41 5.4 333 10.3 102920 36
2010-05-18 07:33:05 51°17.333 2°52.399 5.5 284 10.3 102920 38
2010-05-18 07:33:10 51°17.351 2°52.388 5.5 334 10.3 102920 36
2010-05-18 07:33:15 51°17.369 2°52.377 5 281 10.3 102920 36
2010-05-18 07:33:20 51°17.386 2°52.367 5 334 10.3 102920 36
2010-05-18 07:33:25 51°17.404 2°52.356 5 283 10.3 102930 37
2010-05-18 07:33:30 51°17.422 2°52.345 5.4 333 10.3 102930 37
2010-05-18 07:33:35 51°17.44 2°52.335 5.4 279 10.3 102930 36
2010-05-18 07:33:40 51°17.457 2°52.324 5.2 333 10.3 102930 38
2010-05-18 07:33:45 51°17.475 2°52.314 4.8 285 10.3 102930 38
2010-05-18 07:33:50 51°17.493 2°52.303 4.9 334 10.3 102930 38
2010-05-18 07:33:55 51°17.511 2°52.293 5.1 335 10.3 102920 36
2010-05-18 07:34:00 51°17.528 2°52.282 4.5 332 10.3 102930 38
2010-05-18 07:34:05 51°17.546 2°52.272 5.2 284 10.3 102930 38
2010-05-18 07:34:10 51°17.564 2°52.261 5.3 333 10.3 102930 38
2010-05-18 07:34:14 51°17.578 2°52.253 4.9 278 10.3 102920 37
2010-05-18 07:34:20 51°17.6 2°52.24 5.2 334 10.3 102920 37
2010-05-18 07:34:25 51°17.617 2°52.23 5 276 10.3 102930 35
2010-05-18 07:34:30 51°17.635 2°52.219 5.1 333 10.3 102920 38
2010-05-18 07:34:35 51°17.653 2°52.208 5 283 10.3 102920 38
2010-05-18 07:34:40 51°17.671 2°52.197 5.2 334 10.3 102920 38
2010-05-18 07:34:45 51°17.688 2°52.187 4.8 284 10.3 102930 38
2010-05-18 07:34:50 51°17.706 2°52.176 5.2 334 10.3 102920 36
2010-05-18 07:34:54 51°17.72 2°52.167 5.2 -999 10.3 102920 36
2010-05-18 07:35:00 51°17.742 2°52.155 5.4 334 10.3 102920 36
2010-05-18 07:35:05 51°17.759 2°52.145 5 285 10.3 102930 36
2010-05-18 07:35:10 51°17.777 2°52.134 5.3 334 10.3 102920 36
2010-05-18 07:35:15 51°17.795 2°52.124 4.9 283 10.3 102920 36
2010-05-18 07:35:20 51°17.812 2°52.113 4.8 332 10.3 102920 36
2010-05-18 07:35:25 51°17.83 2°52.103 5.1 283 10.3 102920 38
2010-05-18 07:35:30 51°17.848 2°52.092 5.1 331 10.3 102920 38
2010-05-18 07:35:34 51°17.862 2°52.084 5.5 279 10.3 102920 38
2010-05-18 07:35:40 51°17.883 2°52.071 5 333 10.3 102920 38
2010-05-18 07:35:45 51°17.901 2°52.061 5.6 280 10.3 102930 36
2010-05-18 07:35:50 51°17.919 2°52.05 5.1 333 10.3 102930 36
2010-05-18 07:35:55 51°17.937 2°52.04 5.2 -999 10.3 102930 38
2010-05-18 07:36:00 51°17.954 2°52.029 4.8 333 10.3 102920 34
2010-05-18 07:36:05 51°17.972 2°52.018 5.3 283 10.3 102920 34
2010-05-18 07:36:10 51°17.99 2°52.008 5.1 331 10.3 102920 34
2010-05-18 07:36:14 51°18.004 2°51.999 5 284 10.3 102920 36
2010-05-18 07:36:20 51°18.025 2°51.986 5.3 331 10.3 102920 36
2010-05-18 07:36:25 51°18.042 2°51.975 5 281 10.3 102930 37
2010-05-18 07:36:30 51°18.06 2°51.964 5 331 10.3 102930 36
2010-05-18 07:36:35 51°18.077 2°51.953 4.8 281 10.3 102930 36
2010-05-18 07:36:40 51°18.095 2°51.941 5.1 330 10.3 102930 36
2010-05-18 07:36:45 51°18.112 2°51.93 5.1 284 10.3 102930 38
2010-05-18 07:36:50 51°18.13 2°51.919 5.2 333 10.3 102930 38
2010-05-18 07:36:55 51°18.147 2°51.908 5 333 10.3 102930 38
2010-05-18 07:37:00 51°18.165 2°51.896 4.6 333 10.3 102930 38
2010-05-18 07:37:05 51°18.183 2°51.885 4.9 283 10.3 102920 37
2010-05-18 07:37:10 51°18.2 2°51.874 5.3 332 10.3 102920 37
2010-05-18 07:37:14 51°18.214 2°51.865 5.3 282 10.3 102920 37
2010-05-18 07:37:20 51°18.236 2°51.851 4.8 332 10.3 102920 37
2010-05-18 07:37:25 51°18.253 2°51.84 4.8 284 10.3 102920 36
2010-05-18 07:37:30 51°18.271 2°51.829 4.6 333 10.3 102930 37
2010-05-18 07:37:35 51°18.289 2°51.818 4.7 283 10.3 102930 37
2010-05-18 07:37:40 51°18.306 2°51.807 5.1 333 10.3 102920 36
2010-05-18 07:37:45 51°18.324 2°51.795 5 285 10.3 102920 36
2010-05-18 07:37:50 51°18.342 2°51.784 4.9 335 10.3 102920 36
2010-05-18 07:37:55 51°18.36 2°51.773 4.8 -999 10.3 102920 36
2010-05-18 07:38:00 51°18.377 2°51.762 5.1 334 10.3 102930 36
2010-05-18 07:38:05 51°18.395 2°51.751 5.5 279 10.3 102930 36
2010-05-18 07:38:10 51°18.413 2°51.74 5.4 331 10.3 102930 36
2010-05-18 07:38:14 51°18.427 2°51.731 5.3 284 10.3 102920 36
2010-05-18 07:38:20 51°18.448 2°51.717 5 332 10.3 102920 36
2010-05-18 07:38:25 51°18.466 2°51.705 5.4 285 10.3 102930 36
2010-05-18 07:38:30 51°18.483 2°51.693 5.3 331 10.3 102930 36
2010-05-18 07:38:34 51°18.497 2°51.684 5.1 278 10.3 102930 37
2010-05-18 07:38:40 51°18.518 2°51.67 4.9 332 10.3 102920 37
2010-05-18 07:38:45 51°18.536 2°51.658 5 281 10.3 102920 37
2010-05-18 07:38:50 51°18.553 2°51.647 5.2 332 10.3 102920 37
2010-05-18 07:38:55 51°18.571 2°51.635 5 332 10.3 102920 37
2010-05-18 07:39:00 51°18.588 2°51.623 5.1 331 10.3 102920 37
2010-05-18 07:39:05 51°18.606 2°51.611 5 280 10.3 102930 37
2010-05-18 07:39:10 51°18.623 2°51.599 5 332 10.3 102930 37
2010-05-18 07:39:14 51°18.637 2°51.59 5.2 285 10.3 102920 38
2010-05-18 07:39:20 51°18.658 2°51.576 4.9 332 10.3 102920 38
2010-05-18 07:39:25 51°18.676 2°51.564 4.9 282 10.3 102930 36
2010-05-18 07:39:30 51°18.693 2°51.553 5 333 10.3 102920 36
2010-05-18 07:39:35 51°18.711 2°51.541 5.1 285 10.3 102920 36
2010-05-18 07:39:40 51°18.729 2°51.529 5.3 331 10.3 102920 36
2010-05-18 07:39:45 51°18.746 2°51.518 4.8 277 10.3 102920 36
2010-05-18 07:39:50 51°18.764 2°51.506 5.2 331 10.3 102920 36
2010-05-18 07:39:55 51°18.781 2°51.494 4.9 -999 10.3 102930 36
2010-05-18 07:40:00 51°18.799 2°51.482 5.3 331 10.3 102920 38
2010-05-18 07:40:05 51°18.816 2°51.47 5.3 283 10.3 102920 38
2010-05-18 07:40:10 51°18.834 2°51.459 5.2 331 10.3 102920 38
2010-05-18 07:40:14 51°18.848 2°51.45 4.4 281 10.3 102930 36
2010-05-18 07:40:20 51°18.869 2°51.437 4.6 331 10.3 102920 36
2010-05-18 07:40:25 51°18.886 2°51.425 4.5 285 10.3 102920 36
2010-05-18 07:40:30 51°18.903 2°51.414 4.6 329 10.3 102920 36
2010-05-18 07:40:35 51°18.921 2°51.402 5.1 285 10.3 102920 36
2010-05-18 07:40:40 51°18.938 2°51.39 4.7 332 10.3 102930 36
2010-05-18 07:40:45 51°18.956 2°51.379 5.2 284 10.3 102930 36
2010-05-18 07:40:50 51°18.973 2°51.367 4.9 332 10.3 102930 37
2010-05-18 07:40:55 51°18.99 2°51.356 4.6 331 10.3 102930 37
2010-05-18 07:41:00 51°19.008 2°51.344 4.9 331 10.3 102920 38
2010-05-18 07:41:05 51°19.025 2°51.333 5 278 10.3 102920 38
2010-05-18 07:41:10 51°19.043 2°51.321 5.1 332 10.3 102920 38
2010-05-18 07:41:14 51°19.057 2°51.313 5 284 10.3 102930 36
2010-05-18 07:41:20 51°19.078 2°51.299 5.2 332 10.3 102930 36
2010-05-18 07:41:25 51°19.095 2°51.288 4.6 284 10.3 102920 35
2010-05-18 07:41:30 51°19.113 2°51.277 4.8 332 10.3 102920 36
2010-05-18 07:41:35 51°19.13 2°51.265 5.3 282 10.3 102920 36
2010-05-18 07:41:40 51°19.147 2°51.254 4.7 332 10.3 102920 36
2010-05-18 07:41:45 51°19.165 2°51.242 4.4 285 10.3 102920 37
2010-05-18 07:41:50 51°19.182 2°51.231 4.8 332 10.3 102930 37
2010-05-18 07:41:55 51°19.2 2°51.219 4.6 -999 10.3 102930 37
2010-05-18 07:42:00 51°19.217 2°51.208 4.7 332 10.2 102920 37
2010-05-18 07:42:05 51°19.234 2°51.197 5 283 10.2 102920 37
2010-05-18 07:42:10 51°19.252 2°51.186 5.2 331 10.2 102920 37
2010-05-18 07:42:15 51°19.269 2°51.175 5 280 10.2 102930 36
2010-05-18 07:42:20 51°19.287 2°51.164 4.9 331 10.2 102930 36
2010-05-18 07:42:25 51°19.304 2°51.153 5.2 279 10.3 102930 37
2010-05-18 07:42:30 51°19.322 2°51.143 4.6 331 10.3 102930 37
2010-05-18 07:42:35 51°19.339 2°51.132 5.1 284 10.2 102920 38
2010-05-18 07:42:40 51°19.356 2°51.12 5.3 331 10.3 102920 37
2010-05-18 07:42:45 51°19.374 2°51.109 5.1 283 10.3 102920 37
2010-05-18 07:42:50 51°19.391 2°51.098 5.1 331 10.3 102920 37
2010-05-18 07:42:55 51°19.409 2°51.087 5.1 331 10.3 102920 36
2010-05-18 07:43:00 51°19.426 2°51.076 4.9 332 10.2 102920 36
2010-05-18 07:43:05 51°19.444 2°51.065 4.7 285 10.2 102920 36
2010-05-18 07:43:10 51°19.461 2°51.053 4.7 331 10.2 102920 36
2010-05-18 07:43:14 51°19.475 2°51.044 4.8 279 10.3 102920 36
2010-05-18 07:43:20 51°19.496 2°51.031 4.8 332 10.2 102920 36
2010-05-18 07:43:25 51°19.513 2°51.02 4.9 283 10.2 102920 36
2010-05-18 07:43:30 51°19.531 2°51.009 5.3 331 10.2 102930 36
2010-05-18 07:43:35 51°19.548 2°50.997 4.4 285 10.2 102930 36
2010-05-18 07:43:40 51°19.566 2°50.986 5 331 10.2 102930 36
2010-05-18 07:43:45 51°19.583 2°50.975 4.5 279 10.2 102930 38
2010-05-18 07:43:50 51°19.601 2°50.964 4.7 331 10.2 102930 36
2010-05-18 07:43:55 51°19.618 2°50.953 4.2 330 10.2 102930 36
2010-05-18 07:44:00 51°19.635 2°50.942 5 331 10.2 102930 36
2010-05-18 07:44:05 51°19.653 2°50.931 4.8 279 10.3 102930 37
2010-05-18 07:44:10 51°19.67 2°50.919 4.9 329 10.3 102930 37
2010-05-18 07:44:14 51°19.684 2°50.91 5.3 284 10.2 102930 39
2010-05-18 07:44:20 51°19.705 2°50.897 5.1 329 10.2 102930 39
2010-05-18 07:44:25 51°19.722 2°50.885 4.7 281 10.3 102930 37
2010-05-18 07:44:30 51°19.74 2°50.874 4.5 330 10.3 102930 37
2010-05-18 07:44:35 51°19.757 2°50.864 5.1 285 10.3 102930 37
2010-05-18 07:44:40 51°19.774 2°50.853 5.2 329 10.3 102930 37
2010-05-18 07:44:45 51°19.792 2°50.841 4.6 285 10.3 102920 38
2010-05-18 07:44:50 51°19.809 2°50.83 4.9 329 10.3 102920 38
2010-05-18 07:44:55 51°19.827 2°50.819 4.6 -999 10.3 102930 38
2010-05-18 07:45:00 51°19.845 2°50.807 4.6 329 10.3 102920 39
2010-05-18 07:45:05 51°19.862 2°50.796 4.6 284 10.3 102920 39
2010-05-18 07:45:10 51°19.88 2°50.784 4.6 330 10.3 102920 39
2010-05-18 07:45:14 51°19.894 2°50.775 5.2 284 10.3 102930 37
2010-05-18 07:45:20 51°19.915 2°50.761 5.4 330 10.3 102930 37
2010-05-18 07:45:25 51°19.933 2°50.749 4.9 283 10.3 102930 36
2010-05-18 07:45:30 51°19.95 2°50.737 5.1 329 10.3 102930 36
2010-05-18 07:45:34 51°19.964 2°50.728 4.8 284 10.3 102930 36
2010-05-18 07:45:40 51°19.985 2°50.714 4.7 330 10.3 102930 36
2010-05-18 07:45:45 51°20.003 2°50.702 5 279 10.3 102920 38
2010-05-18 07:45:50 51°20.021 2°50.69 5 327 10.3 102920 36
2010-05-18 07:45:55 51°20.038 2°50.679 5 -999 10.3 102920 36
2010-05-18 07:46:00 51°20.056 2°50.667 4.9 327 10.3 102920 36
2010-05-18 07:46:05 51°20.074 2°50.655 5.4 279 10.3 102930 39
2010-05-18 07:46:10 51°20.091 2°50.644 4.8 328 10.3 102930 38
2010-05-18 07:46:15 51°20.109 2°50.632 4.8 279 10.3 102930 38
2010-05-18 07:46:20 51°20.127 2°50.621 4.9 327 10.3 102920 39
2010-05-18 07:46:25 51°20.145 2°50.609 4.9 285 10.3 102920 39
2010-05-18 07:46:30 51°20.162 2°50.597 5 328 10.3 102920 38
2010-05-18 07:46:34 51°20.176 2°50.588 5.5 282 10.3 102920 38
2010-05-18 07:46:40 51°20.197 2°50.574 5.6 330 10.3 102930 35
2010-05-18 07:46:45 51°20.215 2°50.562 4.9 282 10.3 102930 35
2010-05-18 07:46:50 51°20.232 2°50.55 4.7 328 10.3 102930 35
2010-05-18 07:46:55 51°20.25 2°50.539 5.3 -999 10.3 102920 36
2010-05-18 07:47:00 51°20.267 2°50.528 5.5 328 10.3 102920 37
2010-05-18 07:47:05 51°20.285 2°50.516 5.5 284 10.3 102920 37
2010-05-18 07:47:10 51°20.303 2°50.504 5.4 328 10.3 102930 36
2010-05-18 07:47:15 51°20.32 2°50.493 4.8 285 10.3 102930 36
2010-05-18 07:47:20 51°20.337 2°50.481 5.2 328 10.3 102930 36
2010-05-18 07:47:25 51°20.355 2°50.469 5 284 10.3 102920 36
2010-05-18 07:47:30 51°20.373 2°50.457 4.9 328 10.3 102930 36
2010-05-18 07:47:35 51°20.39 2°50.446 5 279 10.3 102930 36
2010-05-18 07:47:40 51°20.408 2°50.434 4.9 327 10.3 102930 36
2010-05-18 07:47:45 51°20.425 2°50.423 5.2 285 10.3 102930 38
2010-05-18 07:47:50 51°20.443 2°50.411 5 326 10.3 102920 36
2010-05-18 07:47:55 51°20.46 2°50.399 4.8 326 10.3 102920 36
2010-05-18 07:48:00 51°20.478 2°50.388 5 326 10.3 102920 36
2010-05-18 07:48:05 51°20.495 2°50.376 5 284 10.3 102930 36
2010-05-18 07:48:10 51°20.513 2°50.364 4.9 327 10.3 102930 36
2010-05-18 07:48:15 51°20.53 2°50.352 5.3 282 10.3 102930 36
2010-05-18 07:48:20 51°20.548 2°50.34 5.1 325 10.3 102930 36
2010-05-18 07:48:25 51°20.565 2°50.328 5.4 279 10.3 102930 37
2010-05-18 07:48:30 51°20.583 2°50.32 5.1 326 10.3 102920 37
2010-05-18 07:48:34 51°20.597 2°50.311 4.7 283 10.3 102920 37
2010-05-18 07:48:40 51°20.619 2°50.302 5.2 326 10.3 102920 37
2010-05-18 07:48:45 51°20.637 2°50.293 4.9 278 10.3 102920 37
2010-05-18 07:48:50 51°20.655 2°50.287 4.5 326 10.3 102930 39
2010-05-18 07:48:55 51°20.673 2°50.279 4.4 -999 10.3 102930 39
2010-05-18 07:49:00 51°20.691 2°50.273 4.4 326 10.3 102930 39
2010-05-18 07:49:05 51°20.709 2°50.266 4.5 283 10.3 102930 36
2010-05-18 07:49:10 51°20.728 2°50.26 4.3 325 10.3 102920 36
2010-05-18 07:49:15 51°20.746 2°50.254 4.9 279 10.3 102920 36
2010-05-18 07:49:20 51°20.764 2°50.248 5 327 10.3 102920 36
2010-05-18 07:49:25 51°20.782 2°50.241 5.1 284 10.3 102930 35
2010-05-18 07:49:30 51°20.8 2°50.235 5 325 10.3 102930 35
2010-05-18 07:49:34 51°20.815 2°50.23 4.8 285 10.3 102930 39
2010-05-18 07:49:40 51°20.837 2°50.223 4.7 328 10.3 102930 39
2010-05-18 07:49:45 51°20.855 2°50.216 5.1 284 10.4 102930 36
2010-05-18 07:49:50 51°20.873 2°50.21 5.2 324 10.4 102930 36
2010-05-18 07:49:55 51°20.892 2°50.203 4.6 325 10.4 102930 36
2010-05-18 07:50:00 51°20.91 2°50.197 4.7 324 10.4 102930 36
2010-05-18 07:50:05 51°20.928 2°50.19 5.2 283 10.4 102930 36
2010-05-18 07:50:10 51°20.947 2°50.184 5.1 324 10.4 102930 36
2010-05-18 07:50:14 51°20.961 2°50.179 4.7 279 10.4 102920 37
2010-05-18 07:50:20 51°20.984 2°50.172 4.7 323 10.4 102920 37
2010-05-18 07:50:25 51°21.002 2°50.166 5.4 285 10.4 102930 36
2010-05-18 07:50:30 51°21.02 2°50.165 4.8 326 10.4 102930 36
2010-05-18 07:50:35 51°21.039 2°50.163 4.3 284 10.4 102930 39
2010-05-18 07:50:40 51°21.057 2°50.164 4.6 325 10.4 102930 39
2010-05-18 07:50:45 51°21.075 2°50.165 4.4 279 10.4 102930 38
2010-05-18 07:50:50 51°21.093 2°50.167 4.6 328 10.4 102930 38
2010-05-18 07:50:55 51°21.112 2°50.17 4.4 326 10.4 102920 36
2010-05-18 07:51:00 51°21.13 2°50.174 4.4 329 10.4 102920 36
2010-05-18 07:51:05 51°21.148 2°50.179 4.6 284 10.4 102930 36
2010-05-18 07:51:10 51°21.166 2°50.184 4.2 331 10.4 102930 36
2010-05-18 07:51:15 51°21.183 2°50.191 4.1 284 10.3 102930 36
2010-05-18 07:51:20 51°21.202 2°50.197 4.3 331 10.3 102930 36
2010-05-18 07:51:25 51°21.219 2°50.205 4.2 278 10.4 102930 36
2010-05-18 07:51:30 51°21.237 2°50.212 4.2 327 10.4 102930 36
2010-05-18 07:51:35 51°21.255 2°50.22 4.3 280 10.3 102930 37
2010-05-18 07:51:40 51°21.272 2°50.228 4.7 330 10.3 102930 37
2010-05-18 07:51:45 51°21.289 2°50.235 4.6 278 10.3 102930 36
2010-05-18 07:51:50 51°21.307 2°50.244 4.8 331 10.3 102930 36
2010-05-18 07:51:54 51°21.321 2°50.25 4.4 329 10.3 102930 36
2010-05-18 07:52:00 51°21.342 2°50.26 4.8 329 10.3 102930 36
2010-05-18 07:52:05 51°21.359 2°50.268 4.8 285 10.3 102930 38
2010-05-18 07:52:10 51°21.377 2°50.275 4.9 328 10.3 102930 38
2010-05-18 07:52:14 51°21.391 2°50.282 4.9 279 10.4 102930 36
2010-05-18 07:52:20 51°21.412 2°50.291 4.9 330 10.4 102930 36
2010-05-18 07:52:25 51°21.43 2°50.298 4.9 286 10.4 102930 38
2010-05-18 07:52:30 51°21.447 2°50.306 4.7 328 10.4 102930 38
2010-05-18 07:52:34 51°21.462 2°50.311 4.8 283 10.4 102930 39
2010-05-18 07:52:40 51°21.483 2°50.32 4.7 331 10.4 102930 39
2010-05-18 07:52:45 51°21.501 2°50.328 4.9 282 10.4 102930 36
2010-05-18 07:52:50 51°21.519 2°50.335 4.7 330 10.4 102930 36
2010-05-18 07:52:54 51°21.533 2°50.341 4.8 331 10.4 102930 39
2010-05-18 07:53:00 51°21.554 2°50.349 4.6 328 10.4 102930 39
2010-05-18 07:53:05 51°21.572 2°50.356 4.5 285 10.4 102930 38
2010-05-18 07:53:10 51°21.589 2°50.363 4.5 326 10.4 102930 38
2010-05-18 07:53:15 51°21.607 2°50.37 4.4 281 10.4 102930 37
2010-05-18 07:53:20 51°21.625 2°50.377 5.1 327 10.4 102930 37
2010-05-18 07:53:25 51°21.643 2°50.384 5.3 285 10.4 102930 36
2010-05-18 07:53:30 51°21.66 2°50.391 5.1 329 10.4 102930 36
2010-05-18 07:53:35 51°21.678 2°50.398 4.7 282 10.4 102930 39
2010-05-18 07:53:40 51°21.696 2°50.405 4.9 329 10.4 102930 39
2010-05-18 07:53:45 51°21.714 2°50.411 4.7 278 10.4 102930 39
2010-05-18 07:53:50 51°21.732 2°50.418 4.9 333 10.4 102930 39
2010-05-18 07:53:54 51°21.746 2°50.423 4.7 332 10.4 102930 38
2010-05-18 07:54:00 51°21.767 2°50.431 4.4 331 10.4 102930 38
2010-05-18 07:54:05 51°21.785 2°50.438 4.6 277 10.4 102920 39
2010-05-18 07:54:10 51°21.803 2°50.445 4.4 332 10.4 102920 39
2010-05-18 07:54:14 51°21.817 2°50.45 4.8 283 10.3 102920 38
2010-05-18 07:54:20 51°21.839 2°50.458 4.7 332 10.3 102920 38
2010-05-18 07:54:25 51°21.857 2°50.465 4.2 279 10.4 102930 36
2010-05-18 07:54:30 51°21.875 2°50.471 4.5 332 10.4 102930 36
2010-05-18 07:54:34 51°21.889 2°50.477 4.5 285 10.4 102930 39
2010-05-18 07:54:40 51°21.911 2°50.485 4.4 332 10.4 102930 39
2010-05-18 07:54:45 51°21.929 2°50.49 4.9 282 10.4 102920 37
2010-05-18 07:54:50 51°21.947 2°50.496 4.6 333 10.4 102920 37
2010-05-18 07:54:55 51°21.965 2°50.5 4.7 330 10.4 102940 37
2010-05-18 07:55:00 51°21.983 2°50.505 4.6 331 10.4 102940 37
2010-05-18 07:55:05 51°22.002 2°50.508 4.8 278 10.4 102930 39
2010-05-18 07:55:10 51°22.02 2°50.51 4.6 330 10.4 102930 39
2010-05-18 07:55:14 51°22.035 2°50.511 4.9 284 10.4 102930 37
2010-05-18 07:55:20 51°22.058 2°50.51 4.4 329 10.4 102930 37
2010-05-18 07:55:25 51°22.077 2°50.508 4.6 278 10.4 102930 38
2010-05-18 07:55:30 51°22.095 2°50.506 5.1 329 10.4 102930 38
2010-05-18 07:55:35 51°22.114 2°50.504 4.4 279 10.4 102930 36
2010-05-18 07:55:40 51°22.133 2°50.5 5 329 10.4 102930 36
2010-05-18 07:55:45 51°22.152 2°50.496 5.3 279 10.4 102930 38
2010-05-18 07:55:50 51°22.171 2°50.492 5.3 327 10.4 102930 38
2010-05-18 07:55:55 51°22.189 2°50.487 5.5 326 10.4 102930 38
2010-05-18 07:56:00 51°22.208 2°50.482 5.6 329 10.4 102930 38
2010-05-18 07:56:05 51°22.227 2°50.478 4.7 281 10.4 102930 39
2010-05-18 07:56:10 51°22.246 2°50.472 5 327 10.4 102930 39
2010-05-18 07:56:14 51°22.261 2°50.468 5.1 285 10.4 102930 37
2010-05-18 07:56:20 51°22.283 2°50.463 5.4 327 10.4 102930 37
2010-05-18 07:56:25 51°22.302 2°50.457 4.8 278 10.4 102920 37
2010-05-18 07:56:30 51°22.32 2°50.452 4.8 327 10.4 102920 37
2010-05-18 07:56:34 51°22.335 2°50.445 4.9 279 10.4 102940 36
2010-05-18 07:56:40 51°22.357 2°50.436 5.4 326 10.4 102940 36
2010-05-18 07:56:45 51°22.375 2°50.428 5.1 284 10.4 102920 36
2010-05-18 07:56:50 51°22.394 2°50.419 5.1 328 10.4 102920 36
2010-05-18 07:56:55 51°22.412 2°50.41 4.8 329 10.4 102930 36
2010-05-18 07:57:00 51°22.43 2°50.4 5.6 328 10.4 102930 36
2010-05-18 07:57:05 51°22.448 2°50.391 5.8 285 10.4 102930 36
2010-05-18 07:57:10 51°22.467 2°50.381 5.5 329 10.4 102930 36
2010-05-18 07:57:14 51°22.481 2°50.372 5.3 278 10.4 102930 39
2010-05-18 07:57:20 51°22.503 2°50.36 4.8 327 10.4 102930 39
2010-05-18 07:57:25 51°22.521 2°50.348 6 277 10.4 102930 35
2010-05-18 07:57:30 51°22.539 2°50.338 5.1 327 10.4 102930 35
2010-05-18 07:57:35 51°22.556 2°50.324 5.8 280 10.4 102910 36
2010-05-18 07:57:40 51°22.574 2°50.314 5.8 328 10.4 102910 36
2010-05-18 07:57:45 51°22.592 2°50.3 5.4 285 10.4 102920 39
2010-05-18 07:57:50 51°22.61 2°50.289 5.3 327 10.4 102920 39
2010-05-18 07:57:55 51°22.627 2°50.276 5.8 325 10.4 102920 36
2010-05-18 07:58:00 51°22.644 2°50.263 5.5 326 10.4 102920 36
2010-05-18 07:58:05 51°22.662 2°50.249 5.4 285 10.4 102920 37
2010-05-18 07:58:10 51°22.679 2°50.235 5.3 326 10.4 102920 37
2010-05-18 07:58:14 51°22.692 2°50.223 5.2 283 10.4 102920 37
2010-05-18 07:58:20 51°22.713 2°50.207 5.1 326 10.4 102920 37
2010-05-18 07:58:25 51°22.73 2°50.191 5.3 283 10.4 102920 37
2010-05-18 07:58:30 51°22.747 2°50.178 5.4 327 10.4 102920 37
2010-05-18 07:58:34 51°22.76 2°50.165 5.8 279 10.4 102920 39
2010-05-18 07:58:40 51°22.781 2°50.148 5.3 327 10.4 102920 39
2010-05-18 07:58:45 51°22.797 2°50.133 5.4 284 10.4 102920 36
2010-05-18 07:58:50 51°22.814 2°50.118 5.6 330 10.4 102920 36
2010-05-18 07:58:55 51°22.831 2°50.105 4.9 330 10.4 102920 38
2010-05-18 07:59:00 51°22.848 2°50.089 5.4 329 10.4 102920 38
2010-05-18 07:59:05 51°22.865 2°50.076 5.2 279 10.4 102920 37
2010-05-18 07:59:10 51°22.882 2°50.061 5.3 329 10.4 102920 37
2010-05-18 07:59:14 51°22.896 2°50.051 5.5 285 10.4 102930 38
2010-05-18 07:59:20 51°22.916 2°50.033 5.3 328 10.4 102930 38
2010-05-18 07:59:25 51°22.932 2°50.019 5.3 282 10.4 102930 39
2010-05-18 07:59:30 51°22.949 2°50.002 5.6 330 10.4 102930 39
2010-05-18 07:59:34 51°22.964 2°49.995 5.4 279 10.4 102920 38
2010-05-18 07:59:40 51°22.982 2°49.974 5.8 329 10.4 102920 38
2010-05-18 07:59:45 51°23 2°49.962 5.7 283 10.4 102920 38
2010-05-18 07:59:50 51°23.016 2°49.946 5.4 325 10.4 102920 38
2010-05-18 07:59:55 51°23.033 2°49.933 5.8 328 10.4 102930 36
2010-05-18 08:00:00 51°23.049 2°49.917 5.8 327 10.4 102930 36
2010-05-18 08:00:05 51°23.067 2°49.904 5.1 281 10.4 102920 37
2010-05-18 08:00:10 51°23.083 2°49.889 5.1 325 10.4 102920 37
2010-05-18 08:00:15 51°23.099 2°49.874 5.4 283 10.4 102930 39
2010-05-18 08:00:20 51°23.117 2°49.86 5.2 329 10.4 102930 39
2010-05-18 08:00:25 51°23.133 2°49.846 5.1 284 10.4 102920 38
2010-05-18 08:00:30 51°23.15 2°49.832 4.9 330 10.4 102920 38
2010-05-18 08:00:35 51°23.167 2°49.817 5.7 280 10.4 102930 38
2010-05-18 08:00:40 51°23.184 2°49.803 5.3 331 10.4 102930 38
2010-05-18 08:00:45 51°23.201 2°49.789 5.4 282 10.3 102930 38
2010-05-18 08:00:50 51°23.218 2°49.775 5 331 10.3 102930 38
2010-05-18 08:00:54 51°23.231 2°49.764 5.5 332 10.3 102920 36
2010-05-18 08:01:00 51°23.251 2°49.748 5.6 332 10.3 102920 36
2010-05-18 08:01:05 51°23.269 2°49.734 5.3 283 10.3 102930 36
2010-05-18 08:01:10 51°23.286 2°49.72 5.3 331 10.3 102930 36
2010-05-18 08:01:14 51°23.299 2°49.709 5.7 284 10.2 102920 38
2010-05-18 08:01:20 51°23.319 2°49.692 5.5 331 10.2 102920 38
2010-05-18 08:01:25 51°23.337 2°49.678 5.6 282 10.2 102920 38
2010-05-18 08:01:30 51°23.354 2°49.664 5.4 332 10.2 102920 38
2010-05-18 08:01:34 51°23.367 2°49.653 5.3 284 10.2 102930 37
2010-05-18 08:01:40 51°23.388 2°49.637 5.4 331 10.2 102930 37
2010-05-18 08:01:45 51°23.405 2°49.623 6 282 10.2 102920 38
2010-05-18 08:01:50 51°23.422 2°49.609 5.6 331 10.2 102920 38
2010-05-18 08:01:54 51°23.436 2°49.598 5.8 332 10.2 102930 36
2010-05-18 08:02:00 51°23.456 2°49.582 5.6 331 10.2 102930 36
2010-05-18 08:02:05 51°23.473 2°49.568 5.6 280 10.2 102930 36
2010-05-18 08:02:10 51°23.49 2°49.554 5.5 332 10.2 102930 36
2010-05-18 08:02:14 51°23.504 2°49.543 5.7 284 10.2 102930 38
2010-05-18 08:02:20 51°23.524 2°49.527 5.6 332 10.2 102930 38
2010-05-18 08:02:25 51°23.541 2°49.513 5 282 10.2 102930 37
2010-05-18 08:02:30 51°23.558 2°49.499 5.5 331 10.2 102930 37
2010-05-18 08:02:35 51°23.575 2°49.484 5.4 281 10.2 102930 38
2010-05-18 08:02:40 51°23.592 2°49.47 5.2 331 10.2 102930 38
2010-05-18 08:02:45 51°23.609 2°49.457 5.7 284 10.2 102930 36
2010-05-18 08:02:50 51°23.626 2°49.442 5.3 331 10.2 102930 36
2010-05-18 08:02:55 51°23.643 2°49.429 5.8 331 10.2 102930 36
2010-05-18 08:03:00 51°23.66 2°49.415 6.1 331 10.2 102930 36
2010-05-18 08:03:05 51°23.677 2°49.401 5.6 285 10.2 102930 38
2010-05-18 08:03:10 51°23.694 2°49.387 5.7 331 10.2 102930 38
2010-05-18 08:03:14 51°23.708 2°49.376 5.2 284 10.2 102930 36
2010-05-18 08:03:20 51°23.728 2°49.36 5 331 10.2 102930 36
2010-05-18 08:03:25 51°23.745 2°49.346 5.6 281 10.2 102930 36
2010-05-18 08:03:30 51°23.762 2°49.332 5.5 331 10.2 102930 36
2010-05-18 08:03:34 51°23.776 2°49.321 5.1 283 10.2 102940 37
2010-05-18 08:03:40 51°23.796 2°49.304 4.8 332 10.2 102940 37
2010-05-18 08:03:45 51°23.813 2°49.29 5.2 278 10.2 102930 37
2010-05-18 08:03:50 51°23.83 2°49.277 5 334 10.2 102930 37
2010-05-18 08:03:54 51°23.844 2°49.266 5.8 332 10.2 102930 36
2010-05-18 08:04:00 51°23.864 2°49.249 5.1 331 10.2 102930 36
2010-05-18 08:04:05 51°23.881 2°49.235 5.3 281 10.2 102930 37
2010-05-18 08:04:10 51°23.898 2°49.221 5.3 331 10.2 102930 37
2010-05-18 08:04:14 51°23.912 2°49.21 5.2 284 10.2 102930 36
2010-05-18 08:04:20 51°23.932 2°49.194 5.6 332 10.2 102930 36
2010-05-18 08:04:25 51°23.949 2°49.18 5.3 284 10.2 102930 38
2010-05-18 08:04:30 51°23.966 2°49.166 5.4 332 10.2 102930 38
2010-05-18 08:04:35 51°23.983 2°49.152 5.4 286 10.2 102930 38
2010-05-18 08:04:40 51°24 2°49.138 5.4 332 10.2 102930 38
2010-05-18 08:04:45 51°24.017 2°49.124 5.5 283 10.2 102930 38
2010-05-18 08:04:50 51°24.034 2°49.11 5.3 333 10.2 102930 38
2010-05-18 08:04:55 51°24.051 2°49.096 5.5 332 10.2 102930 35
2010-05-18 08:05:00 51°24.068 2°49.082 5.3 331 10.2 102930 35
2010-05-18 08:05:05 51°24.084 2°49.068 5.7 278 10.2 102930 38
2010-05-18 08:05:10 51°24.102 2°49.054 5.9 332 10.2 102930 38
2010-05-18 08:05:14 51°24.115 2°49.043 5.7 278 10.2 102930 36
2010-05-18 08:05:20 51°24.136 2°49.027 5.8 333 10.2 102930 36
2010-05-18 08:05:25 51°24.153 2°49.013 5.3 280 10.2 102940 34
2010-05-18 08:05:30 51°24.17 2°48.999 5.4 333 10.2 102940 34
2010-05-18 08:05:34 51°24.183 2°48.988 5.4 278 10.2 102930 38
2010-05-18 08:05:40 51°24.204 2°48.971 5.2 333 10.2 102930 38
2010-05-18 08:05:45 51°24.221 2°48.957 5.7 284 10.2 102930 37
2010-05-18 08:05:50 51°24.238 2°48.943 5.5 332 10.2 102930 37
2010-05-18 08:05:54 51°24.251 2°48.932 5.4 333 10.2 102930 38
2010-05-18 08:06:00 51°24.272 2°48.916 5.6 334 10.2 102930 38
2010-05-18 08:06:05 51°24.289 2°48.902 5.5 281 10.2 102930 38
2010-05-18 08:06:10 51°24.306 2°48.888 5.6 333 10.2 102930 38
2010-05-18 08:06:14 51°24.32 2°48.878 5.2 280 10.2 102930 36
2010-05-18 08:06:20 51°24.34 2°48.861 5.6 332 10.2 102930 36
2010-05-18 08:06:25 51°24.357 2°48.847 4.9 279 10.2 102930 37
2010-05-18 08:06:30 51°24.374 2°48.833 5.1 333 10.2 102930 37
2010-05-18 08:06:35 51°24.391 2°48.819 5.3 285 10.1 102940 35
2010-05-18 08:06:40 51°24.408 2°48.805 5.4 332 10.1 102940 35
2010-05-18 08:06:45 51°24.425 2°48.791 5.2 284 10.2 102940 35
2010-05-18 08:06:50 51°24.442 2°48.776 5.6 332 10.2 102940 35
2010-05-18 08:06:55 51°24.459 2°48.762 5.6 332 10.2 102930 37
2010-05-18 08:07:00 51°24.476 2°48.748 5.5 333 10.2 102930 37
2010-05-18 08:07:05 51°24.493 2°48.734 5.7 285 10.2 102930 37
2010-05-18 08:07:10 51°24.51 2°48.72 5.4 334 10.2 102930 37
2010-05-18 08:07:14 51°24.524 2°48.709 5.8 283 10.2 102930 38
2010-05-18 08:07:20 51°24.544 2°48.692 5.2 333 10.2 102930 38
2010-05-18 08:07:25 51°24.561 2°48.679 5.2 284 10.2 102930 38
2010-05-18 08:07:30 51°24.578 2°48.665 5.6 332 10.2 102930 38
2010-05-18 08:07:34 51°24.592 2°48.654 5.8 285 10.2 102920 35
2010-05-18 08:07:40 51°24.613 2°48.637 5.6 334 10.2 102920 35
2010-05-18 08:07:45 51°24.63 2°48.623 5.7 285 10.2 102930 37
2010-05-18 08:07:50 51°24.647 2°48.609 5.4 333 10.2 102930 37
2010-05-18 08:07:55 51°24.664 2°48.595 5.2 333 10.2 102930 37
2010-05-18 08:08:00 51°24.681 2°48.582 5.4 333 10.2 102930 37
2010-05-18 08:08:05 51°24.698 2°48.568 5.7 283 10.2 102930 34
2010-05-18 08:08:10 51°24.715 2°48.554 5.4 333 10.2 102930 34
2010-05-18 08:08:14 51°24.729 2°48.543 5.3 281 10.2 102930 35
2010-05-18 08:08:20 51°24.749 2°48.526 5.2 334 10.2 102930 35
2010-05-18 08:08:25 51°24.766 2°48.513 5.6 278 10.2 102940 37
2010-05-18 08:08:30 51°24.784 2°48.499 5.5 333 10.2 102940 37
2010-05-18 08:08:34 51°24.797 2°48.488 5.5 284 10.2 102930 38
2010-05-18 08:08:40 51°24.818 2°48.472 5.6 332 10.2 102930 38
2010-05-18 08:08:45 51°24.835 2°48.458 5.3 284 10.2 102940 38
2010-05-18 08:08:50 51°24.852 2°48.444 6 334 10.2 102940 38
2010-05-18 08:08:55 51°24.87 2°48.431 5.3 334 10.2 102930 38
2010-05-18 08:09:00 51°24.887 2°48.417 4.9 333 10.2 102930 38
2010-05-18 08:09:05 51°24.904 2°48.403 5.3 277 10.2 102930 38
2010-05-18 08:09:10 51°24.921 2°48.39 5.4 333 10.2 102930 38
2010-05-18 08:09:14 51°24.935 2°48.378 5.3 284 10.2 102930 35
2010-05-18 08:09:20 51°24.956 2°48.362 5.2 333 10.2 102930 35
2010-05-18 08:09:25 51°24.973 2°48.348 5 284 10.2 102930 38
2010-05-18 08:09:30 51°24.99 2°48.335 5.3 330 10.2 102930 38
2010-05-18 08:09:34 51°25.004 2°48.328 5.3 279 10.2 102940 35
2010-05-18 08:09:40 51°25.026 2°48.317 5.3 331 10.2 102940 35
2010-05-18 08:09:45 51°25.044 2°48.309 5 285 10.2 102930 35
2010-05-18 08:09:50 51°25.063 2°48.303 5.7 332 10.2 102930 35
2010-05-18 08:09:55 51°25.081 2°48.298 5.6 333 10.2 102930 38
2010-05-18 08:10:00 51°25.1 2°48.293 5.6 333 10.2 102930 38
2010-05-18 08:10:05 51°25.118 2°48.289 5.3 279 10.2 102930 37
2010-05-18 08:10:10 51°25.137 2°48.286 5.6 332 10.2 102930 37
2010-05-18 08:10:14 51°25.152 2°48.283 5.3 285 10.2 102940 36
2010-05-18 08:10:20 51°25.174 2°48.281 5.4 332 10.2 102940 36
2010-05-18 08:10:25 51°25.193 2°48.278 5.2 281 10.2 102930 36
2010-05-18 08:10:30 51°25.212 2°48.276 5.1 333 10.2 102930 36
2010-05-18 08:10:34 51°25.227 2°48.274 5.3 284 10.2 102930 35
2010-05-18 08:10:40 51°25.249 2°48.273 5.6 334 10.2 102930 35
2010-05-18 08:10:45 51°25.268 2°48.27 5.7 282 10.2 102940 34
2010-05-18 08:10:50 51°25.287 2°48.269 5.6 332 10.2 102940 34
2010-05-18 08:10:55 51°25.305 2°48.267 5.7 333 10.2 102930 35
2010-05-18 08:11:00 51°25.324 2°48.264 5.1 333 10.2 102930 35
2010-05-18 08:11:05 51°25.343 2°48.262 5.7 279 10.2 102930 37
2010-05-18 08:11:10 51°25.361 2°48.26 5.7 333 10.2 102930 37
2010-05-18 08:11:15 51°25.38 2°48.258 5.5 284 10.2 102930 35
2010-05-18 08:11:20 51°25.399 2°48.255 5.2 333 10.2 102930 35
2010-05-18 08:11:25 51°25.417 2°48.253 5.4 283 10.2 102930 37
2010-05-18 08:11:30 51°25.436 2°48.251 5.6 334 10.2 102930 37
2010-05-18 08:11:35 51°25.455 2°48.248 5.3 284 10.2 102930 36
2010-05-18 08:11:40 51°25.473 2°48.246 5.7 335 10.2 102930 36
2010-05-18 08:11:45 51°25.492 2°48.243 5.6 283 10.2 102930 38
2010-05-18 08:11:50 51°25.511 2°48.24 5.6 335 10.2 102930 38
2010-05-18 08:11:54 51°25.526 2°48.238 5 333 10.2 102930 37
2010-05-18 08:12:00 51°25.548 2°48.235 5.2 333 10.2 102930 37
2010-05-18 08:12:05 51°25.567 2°48.231 4.9 284 10.2 102930 36
2010-05-18 08:12:10 51°25.586 2°48.229 5.2 332 10.2 102930 36
2010-05-18 08:12:14 51°25.601 2°48.226 4.9 283 10.2 102930 35
2010-05-18 08:12:20 51°25.623 2°48.223 5.2 332 10.2 102930 35
2010-05-18 08:12:25 51°25.641 2°48.219 5.7 284 10.2 102930 37
2010-05-18 08:12:30 51°25.66 2°48.217 5.4 332 10.2 102930 37
2010-05-18 08:12:34 51°25.675 2°48.214 5.3 279 10.2 102930 37
2010-05-18 08:12:40 51°25.697 2°48.21 5.3 332 10.2 102930 37
2010-05-18 08:12:45 51°25.716 2°48.207 5.2 283 10.2 102930 37
2010-05-18 08:12:50 51°25.734 2°48.204 5.4 333 10.2 102930 37
2010-05-18 08:12:55 51°25.753 2°48.201 5.2 331 10.2 102930 36
2010-05-18 08:13:00 51°25.771 2°48.197 5.3 332 10.2 102930 36
2010-05-18 08:13:05 51°25.79 2°48.194 5.2 281 10.2 102920 37
2010-05-18 08:13:10 51°25.808 2°48.191 5.4 332 10.2 102920 37
2010-05-18 08:13:15 51°25.827 2°48.188 5.5 282 10.2 102930 35
2010-05-18 08:13:20 51°25.845 2°48.184 5.5 333 10.2 102930 35
2010-05-18 08:13:25 51°25.864 2°48.181 5.6 283 10.2 102930 35
2010-05-18 08:13:30 51°25.883 2°48.178 5.2 332 10.2 102930 35
2010-05-18 08:13:35 51°25.901 2°48.174 5.2 282 10.2 102940 35
2010-05-18 08:13:40 51°25.919 2°48.171 5.5 331 10.2 102940 35
2010-05-18 08:13:45 51°25.938 2°48.168 5.6 279 10.2 102930 36
2010-05-18 08:13:50 51°25.956 2°48.165 5.5 333 10.2 102930 36
2010-05-18 08:13:55 51°25.975 2°48.161 5.2 331 10.3 102930 36
2010-05-18 08:14:00 51°25.994 2°48.158 5.4 332 10.3 102930 36
2010-05-18 08:14:05 51°26.012 2°48.154 5.2 280 10.3 102930 35
2010-05-18 08:14:10 51°26.031 2°48.151 5.1 331 10.3 102930 35
2010-05-18 08:14:14 51°26.045 2°48.149 5.4 280 10.3 102930 35
2010-05-18 08:14:20 51°26.068 2°48.144 5.4 332 10.3 102930 35
2010-05-18 08:14:25 51°26.086 2°48.141 5.1 282 10.3 102930 35
2010-05-18 08:14:30 51°26.105 2°48.138 5.5 332 10.3 102930 35
2010-05-18 08:14:34 51°26.12 2°48.135 5.6 281 10.3 102930 36
2010-05-18 08:14:40 51°26.142 2°48.131 5.5 332 10.3 102930 36
2010-05-18 08:14:45 51°26.16 2°48.127 5.3 279 10.3 102930 38
2010-05-18 08:14:50 51°26.179 2°48.124 5.5 332 10.3 102930 38
2010-05-18 08:14:55 51°26.198 2°48.12 5 330 10.3 102920 36
2010-05-18 08:15:00 51°26.216 2°48.117 5.4 331 10.3 102920 36
2010-05-18 08:15:05 51°26.235 2°48.114 5.1 285 10.3 102940 35
2010-05-18 08:15:10 51°26.254 2°48.111 5.1 332 10.3 102940 35
2010-05-18 08:15:15 51°26.272 2°48.107 5.6 283 10.3 102930 35
2010-05-18 08:15:20 51°26.291 2°48.104 5.4 332 10.3 102930 35
2010-05-18 08:15:25 51°26.31 2°48.1 5.3 278 10.3 102930 36
2010-05-18 08:15:30 51°26.328 2°48.097 5.1 331 10.3 102930 36
2010-05-18 08:15:35 51°26.347 2°48.094 5.2 285 10.3 102930 37
2010-05-18 08:15:40 51°26.366 2°48.091 5.3 332 10.3 102930 37
2010-05-18 08:15:45 51°26.384 2°48.087 5.7 282 10.3 102940 37
2010-05-18 08:15:50 51°26.403 2°48.084 5.4 332 10.3 102940 37
2010-05-18 08:15:55 51°26.422 2°48.081 5.5 333 10.3 102930 37
2010-05-18 08:16:00 51°26.44 2°48.077 5.2 333 10.3 102930 37
2010-05-18 08:16:05 51°26.459 2°48.074 5.4 284 10.3 102930 34
2010-05-18 08:16:10 51°26.478 2°48.071 5.7 332 10.3 102930 34
2010-05-18 08:16:15 51°26.497 2°48.068 5.1 284 10.3 102930 35
2010-05-18 08:16:20 51°26.515 2°48.065 5.7 330 10.3 102930 35
2010-05-18 08:16:25 51°26.534 2°48.061 5.9 279 10.3 102930 35
2010-05-18 08:16:30 51°26.553 2°48.058 5.5 331 10.3 102930 35
2010-05-18 08:16:34 51°26.568 2°48.056 5.1 278 10.3 102930 37
2010-05-18 08:16:40 51°26.59 2°48.052 5.1 331 10.3 102930 37
2010-05-18 08:16:45 51°26.609 2°48.049 5.4 281 10.3 102930 35
2010-05-18 08:16:50 51°26.627 2°48.046 5.3 332 10.3 102930 35
2010-05-18 08:16:55 51°26.646 2°48.042 5.6 331 10.3 102930 37
2010-05-18 08:17:00 51°26.665 2°48.039 5.6 331 10.3 102930 37
2010-05-18 08:17:05 51°26.683 2°48.036 5.9 281 10.2 102930 35
2010-05-18 08:17:10 51°26.702 2°48.033 5.4 331 10.2 102930 35
2010-05-18 08:17:14 51°26.717 2°48.031 5.2 278 10.2 102930 37
2010-05-18 08:17:20 51°26.739 2°48.028 5.5 332 10.2 102930 37
2010-05-18 08:17:25 51°26.758 2°48.025 5.2 279 10.2 102930 35
2010-05-18 08:17:30 51°26.776 2°48.021 5.3 332 10.2 102930 35
2010-05-18 08:17:35 51°26.795 2°48.018 5 278 10.2 102930 35
2010-05-18 08:17:40 51°26.814 2°48.015 5.3 333 10.2 102930 35
2010-05-18 08:17:45 51°26.832 2°48.012 4.9 278 10.2 102930 35
2010-05-18 08:17:50 51°26.851 2°48.009 4.9 331 10.2 102930 35
2010-05-18 08:17:55 51°26.87 2°48.006 5.7 332 10.2 102930 35
2010-05-18 08:18:00 51°26.889 2°48.004 5.6 330 10.2 102930 35
2010-05-18 08:18:05 51°26.907 2°48.001 5.3 277 10.2 102930 35
2010-05-18 08:18:10 51°26.926 2°47.998 4.9 331 10.2 102930 35
2010-05-18 08:18:15 51°26.945 2°47.994 5.6 280 10.2 102940 36
2010-05-18 08:18:20 51°26.963 2°47.992 5.4 331 10.2 102940 36
2010-05-18 08:18:25 51°26.982 2°47.989 5.5 278 10.2 102920 35
2010-05-18 08:18:30 51°27.001 2°47.986 5.7 332 10.2 102920 35
2010-05-18 08:18:34 51°27.016 2°47.984 5 278 10.2 102940 36
2010-05-18 08:18:40 51°27.038 2°47.981 5 330 10.2 102940 36
2010-05-18 08:18:45 51°27.057 2°47.978 5.8 278 10.2 102930 36
2010-05-18 08:18:50 51°27.075 2°47.975 5.1 332 10.2 102930 36
2010-05-18 08:18:55 51°27.094 2°47.972 5.5 332 10.2 102930 37
2010-05-18 08:19:00 51°27.113 2°47.97 5 333 10.2 102930 37
2010-05-18 08:19:05 51°27.132 2°47.967 5.4 278 10.3 102940 36
2010-05-18 08:19:10 51°27.15 2°47.965 5.3 333 10.3 102940 36
2010-05-18 08:19:15 51°27.169 2°47.962 5 283 10.3 102930 37
2010-05-18 08:19:20 51°27.188 2°47.959 5.3 331 10.3 102930 37
2010-05-18 08:19:25 51°27.207 2°47.956 5 284 10.3 102940 37
2010-05-18 08:19:30 51°27.225 2°47.954 5 332 10.3 102940 37
2010-05-18 08:19:35 51°27.244 2°47.951 5.5 283 10.3 102930 35
2010-05-18 08:19:40 51°27.263 2°47.949 5.2 331 10.3 102930 35
2010-05-18 08:19:45 51°27.282 2°47.946 5.5 280 10.3 102940 37
2010-05-18 08:19:50 51°27.301 2°47.943 5.5 332 10.3 102940 37
2010-05-18 08:19:55 51°27.319 2°47.94 5.4 332 10.3 102930 35
2010-05-18 08:20:00 51°27.338 2°47.938 5.7 331 10.3 102930 35
2010-05-18 08:20:05 51°27.357 2°47.935 5.5 283 10.3 102940 36
2010-05-18 08:20:10 51°27.376 2°47.933 5.6 331 10.3 102940 36
2010-05-18 08:20:15 51°27.394 2°47.93 5.6 283 10.3 102940 35
2010-05-18 08:20:20 51°27.413 2°47.927 5.2 333 10.3 102940 35
2010-05-18 08:20:25 51°27.432 2°47.924 5.4 284 10.3 102940 37
2010-05-18 08:20:30 51°27.45 2°47.921 5.6 332 10.3 102940 37
2010-05-18 08:20:35 51°27.469 2°47.917 5 278 10.3 102930 36
2010-05-18 08:20:40 51°27.487 2°47.913 5.4 332 10.3 102930 36
2010-05-18 08:20:45 51°27.506 2°47.91 5.6 282 10.3 102940 36
2010-05-18 08:20:50 51°27.524 2°47.906 5.5 331 10.3 102940 36
2010-05-18 08:20:55 51°27.543 2°47.903 5.3 333 10.3 102940 37
2010-05-18 08:21:00 51°27.561 2°47.9 5.2 332 10.3 102940 37
2010-05-18 08:21:05 51°27.579 2°47.896 5.2 278 10.3 102940 35
2010-05-18 08:21:10 51°27.598 2°47.893 5.3 330 10.3 102940 35
2010-05-18 08:21:14 51°27.612 2°47.891 5.4 283 10.3 102930 37
2010-05-18 08:21:20 51°27.635 2°47.887 5.2 332 10.3 102930 37
2010-05-18 08:21:25 51°27.653 2°47.884 5.6 281 10.3 102940 33
2010-05-18 08:21:30 51°27.672 2°47.88 5.5 330 10.3 102940 33
2010-05-18 08:21:34 51°27.686 2°47.878 5.4 285 10.3 102930 37
2010-05-18 08:21:40 51°27.708 2°47.874 5.1 330 10.3 102930 37
2010-05-18 08:21:45 51°27.727 2°47.871 5.2 284 10.3 102940 35
2010-05-18 08:21:50 51°27.745 2°47.868 5.6 332 10.3 102940 35
2010-05-18 08:21:55 51°27.764 2°47.865 5.3 330 10.3 102930 36
2010-05-18 08:22:00 51°27.782 2°47.861 5 332 10.3 102930 36
2010-05-18 08:22:05 51°27.801 2°47.858 5 280 10.3 102940 37
2010-05-18 08:22:10 51°27.819 2°47.855 5.2 330 10.3 102940 37
2010-05-18 08:22:14 51°27.834 2°47.853 5.3 280 10.3 102940 35
2010-05-18 08:22:20 51°27.856 2°47.849 5.5 330 10.3 102940 35
2010-05-18 08:22:25 51°27.874 2°47.846 5 283 10.3 102940 35
2010-05-18 08:22:30 51°27.893 2°47.843 5.2 332 10.3 102940 35
2010-05-18 08:22:35 51°27.911 2°47.84 5.4 281 10.3 102940 35
2010-05-18 08:22:40 51°27.929 2°47.837 5.3 331 10.3 102940 35
2010-05-18 08:22:45 51°27.948 2°47.834 5.3 277 10.3 102940 37
2010-05-18 08:22:50 51°27.966 2°47.831 5.2 331 10.3 102940 37
2010-05-18 08:22:54 51°27.981 2°47.828 5.5 331 10.3 102940 37
2010-05-18 08:23:00 51°28.003 2°47.825 4.9 332 10.3 102940 37
2010-05-18 08:23:05 51°28.022 2°47.822 5.8 277 10.3 102940 37
2010-05-18 08:23:10 51°28.04 2°47.819 5.4 332 10.3 102940 37
2010-05-18 08:23:14 51°28.055 2°47.817 5.1 283 10.3 102940 38
2010-05-18 08:23:20 51°28.077 2°47.813 5 331 10.3 102940 38
2010-05-18 08:23:25 51°28.096 2°47.811 5.4 279 10.3 102940 36
2010-05-18 08:23:30 51°28.114 2°47.807 5.5 332 10.3 102940 36
2010-05-18 08:23:34 51°28.129 2°47.805 5.4 277 10.3 102930 35
2010-05-18 08:23:40 51°28.151 2°47.801 5.7 332 10.3 102930 35
2010-05-18 08:23:45 51°28.17 2°47.798 5.3 279 10.3 102940 35
2010-05-18 08:23:50 51°28.188 2°47.795 5.4 333 10.3 102940 35
2010-05-18 08:23:55 51°28.207 2°47.792 5.9 332 10.3 102940 36
2010-05-18 08:24:00 51°28.225 2°47.789 5.3 333 10.3 102940 36
2010-05-18 08:24:05 51°28.244 2°47.787 5.1 277 10.3 102930 34
2010-05-18 08:24:10 51°28.263 2°47.783 5.6 333 10.3 102930 34
2010-05-18 08:24:15 51°28.281 2°47.78 5.4 279 10.3 102940 37
2010-05-18 08:24:20 51°28.3 2°47.777 5.5 333 10.3 102940 37
2010-05-18 08:24:25 51°28.319 2°47.774 6 277 10.3 102940 35
2010-05-18 08:24:30 51°28.337 2°47.771 5.4 330 10.3 102940 35
2010-05-18 08:24:35 51°28.356 2°47.768 5.8 279 10.3 102940 36
2010-05-18 08:24:40 51°28.374 2°47.765 5.6 332 10.3 102940 36
2010-05-18 08:24:45 51°28.393 2°47.762 5.4 283 10.3 102940 35
2010-05-18 08:24:50 51°28.412 2°47.759 5.4 330 10.3 102940 35
2010-05-18 08:24:55 51°28.43 2°47.756 5.3 331 10.3 102940 35
2010-05-18 08:25:00 51°28.449 2°47.754 6.2 331 10.3 102940 35
2010-05-18 08:25:05 51°28.467 2°47.75 5.6 285 10.3 102930 37
2010-05-18 08:25:10 51°28.486 2°47.748 5.4 331 10.3 102930 37
2010-05-18 08:25:15 51°28.504 2°47.744 5.5 284 10.3 102940 35
2010-05-18 08:25:20 51°28.523 2°47.742 5.4 333 10.3 102940 35
2010-05-18 08:25:25 51°28.542 2°47.739 5.4 283 10.3 102940 36
2010-05-18 08:25:30 51°28.56 2°47.736 5.4 331 10.3 102940 36
2010-05-18 08:25:34 51°28.575 2°47.733 6 279 10.3 102940 37
2010-05-18 08:25:40 51°28.597 2°47.729 5.8 330 10.3 102940 37
2010-05-18 08:25:45 51°28.616 2°47.727 5.4 277 10.3 102940 37
2010-05-18 08:25:50 51°28.634 2°47.723 5.5 330 10.3 102940 37
2010-05-18 08:25:55 51°28.653 2°47.721 5.8 331 10.3 102940 37
2010-05-18 08:26:00 51°28.671 2°47.717 5.4 330 10.3 102940 37
2010-05-18 08:26:05 51°28.69 2°47.715 5.2 284 10.3 102940 36
2010-05-18 08:26:10 51°28.708 2°47.711 5.2 332 10.3 102940 36
2010-05-18 08:26:14 51°28.723 2°47.709 5.5 282 10.3 102940 35
2010-05-18 08:26:20 51°28.745 2°47.705 5.7 331 10.3 102940 35
2010-05-18 08:26:25 51°28.764 2°47.703 5.6 282 10.3 102940 35
2010-05-18 08:26:46 51°28.842 2°47.691 5.9 286 10.3 102940 35
2010-05-18 08:27:16 51°28.953 2°47.673 5.7 278 10.3 102940 35
2010-05-18 08:27:35 51°29.023 2°47.661 5.4 286 10.3 102940 35
2010-05-18 08:29:04 51°29.354 2°47.611 5.9 331 10.2 102940 35
2010-05-18 08:29:18 51°29.406 2°47.604 5.4 333 10.2 102950 37
2010-05-18 08:29:23 51°29.425 2°47.601 5.7 332 10.2 102940 36
2010-05-18 08:29:28 51°29.443 2°47.598 5.4 333 10.2 102940 36
2010-05-18 08:29:33 51°29.461 2°47.596 5.6 332 10.2 102940 36
2010-05-18 08:29:38 51°29.48 2°47.593 5.8 331 10.2 102940 36
2010-05-18 08:29:42 51°29.495 2°47.591 6 331 10.2 102950 36
2010-05-18 08:29:48 51°29.517 2°47.588 5.3 330 10.2 102950 36
2010-05-18 08:29:53 51°29.536 2°47.586 5.6 330 10.2 102940 37
2010-05-18 08:29:58 51°29.554 2°47.583 5.8 278 10.2 102940 37
2010-05-18 08:30:03 51°29.573 2°47.58 6.1 330 10.2 102950 36
2010-05-18 08:30:08 51°29.591 2°47.576 5.5 332 10.2 102950 36
2010-05-18 08:30:13 51°29.61 2°47.574 5.3 329 10.2 102940 35
2010-05-18 08:30:18 51°29.628 2°47.569 5.7 330 10.2 102940 35
2010-05-18 08:30:22 51°29.643 2°47.567 5.9 332 10.2 102950 38
2010-05-18 08:30:28 51°29.665 2°47.561 6 332 10.2 102950 38
2010-05-18 08:30:33 51°29.683 2°47.559 5.8 331 10.2 102950 37
2010-05-18 08:30:38 51°29.702 2°47.555 5.4 332 10.2 102950 37
2010-05-18 08:30:42 51°29.717 2°47.552 5.6 332 10.2 102950 38
2010-05-18 08:30:48 51°29.739 2°47.548 5.7 332 10.2 102950 38
2010-05-18 08:30:53 51°29.758 2°47.545 5.3 332 10.2 102940 37
2010-05-18 08:30:58 51°29.776 2°47.541 5.5 333 10.2 102940 37
2010-05-18 08:31:03 51°29.795 2°47.538 5.6 333 10.2 102950 35
2010-05-18 08:31:08 51°29.813 2°47.534 5.6 332 10.2 102950 35
2010-05-18 08:31:13 51°29.832 2°47.531 5.2 333 10.2 102950 36
2010-05-18 08:31:18 51°29.85 2°47.527 5.5 331 10.2 102950 36
2010-05-18 08:31:22 51°29.865 2°47.524 5 331 10.2 102960 36
2010-05-18 08:31:28 51°29.888 2°47.52 5.9 331 10.2 102960 36
2010-05-18 08:31:33 51°29.906 2°47.517 5.8 332 10.2 102940 35
2010-05-18 08:31:38 51°29.925 2°47.514 5.9 332 10.2 102940 35
2010-05-18 08:31:42 51°29.939 2°47.51 5.8 332 10.2 102950 36
2010-05-18 08:31:48 51°29.962 2°47.507 5.7 331 10.2 102950 36
2010-05-18 08:31:53 51°29.98 2°47.503 5.4 332 10.2 102950 36
2010-05-18 08:31:58 51°29.999 2°47.5 5.6 282 10.2 102950 36
2010-05-18 08:32:02 51°30.013 2°47.497 5.6 333 10.2 102950 36
2010-05-18 08:32:08 51°30.036 2°47.493 5.3 332 10.2 102950 36
2010-05-18 08:32:13 51°30.054 2°47.489 5.6 332 10.2 102950 37
2010-05-18 08:32:18 51°30.072 2°47.486 5.4 331 10.2 102950 37
2010-05-18 08:32:22 51°30.087 2°47.483 5.8 331 10.2 102950 38
2010-05-18 08:32:28 51°30.109 2°47.48 5.9 331 10.2 102950 38
2010-05-18 08:32:33 51°30.128 2°47.475 5.8 331 10.2 102950 37
2010-05-18 08:32:38 51°30.146 2°47.472 5.5 331 10.2 102950 37
2010-05-18 08:32:42 51°30.161 2°47.468 5.6 330 10.2 102950 38
2010-05-18 08:32:48 51°30.183 2°47.463 5.9 332 10.2 102950 38
2010-05-18 08:32:53 51°30.201 2°47.459 5.6 331 10.3 102950 37
2010-05-18 08:32:58 51°30.219 2°47.455 5.4 330 10.3 102950 37
2010-05-18 08:33:03 51°30.237 2°47.451 5.5 331 10.3 102950 37
2010-05-18 08:33:08 51°30.256 2°47.448 5.9 331 10.3 102950 37
2010-05-18 08:33:13 51°30.274 2°47.444 5.9 331 10.2 102950 36
2010-05-18 08:33:18 51°30.292 2°47.44 5.6 331 10.2 102950 36
2010-05-18 08:33:23 51°30.31 2°47.436 5.3 332 10.2 102950 35
2010-05-18 08:33:28 51°30.328 2°47.433 5.8 331 10.2 102950 35
2010-05-18 08:33:33 51°30.346 2°47.428 5.2 331 10.3 102960 38
2010-05-18 08:33:38 51°30.364 2°47.425 5.5 330 10.3 102960 38
2010-05-18 08:33:42 51°30.378 2°47.421 5.7 330 10.3 102950 35
2010-05-18 08:33:48 51°30.4 2°47.417 5.2 330 10.3 102950 35
2010-05-18 08:33:53 51°30.418 2°47.414 5.4 330 10.3 102950 37
2010-05-18 08:33:58 51°30.436 2°47.41 5.6 278 10.3 102950 37
2010-05-18 08:34:02 51°30.45 2°47.407 5.4 332 10.3 102940 38
2010-05-18 08:34:08 51°30.472 2°47.403 5.3 331 10.3 102940 38
2010-05-18 08:34:13 51°30.49 2°47.398 5.5 332 10.3 102950 38
2010-05-18 08:34:18 51°30.508 2°47.395 5.7 301 10.3 102950 38
2010-05-18 08:34:23 51°30.525 2°47.391 5.8 331 10.3 102950 36
2010-05-18 08:34:28 51°30.544 2°47.388 5.8 330 10.3 102950 36
2010-05-18 08:34:33 51°30.561 2°47.383 5.6 332 10.3 102960 38
2010-05-18 08:34:38 51°30.579 2°47.38 5.6 331 10.3 102960 38
2010-05-18 08:34:43 51°30.597 2°47.376 5.7 331 10.3 102950 36
2010-05-18 08:34:48 51°30.615 2°47.372 5.6 332 10.3 102950 36
2010-05-18 08:34:53 51°30.633 2°47.369 5.5 333 10.3 102960 37
2010-05-18 08:34:58 51°30.651 2°47.365 5.3 332 10.3 102960 37
2010-05-18 08:35:02 51°30.666 2°47.362 5.6 333 10.3 102950 36
2010-05-18 08:35:08 51°30.687 2°47.358 5.6 331 10.3 102950 36
2010-05-18 08:35:13 51°30.705 2°47.354 5.5 331 10.3 102950 38
2010-05-18 08:35:18 51°30.724 2°47.35 5.4 331 10.3 102950 38
2010-05-18 08:35:22 51°30.738 2°47.347 5.5 332 10.3 102950 37
2010-05-18 08:35:28 51°30.76 2°47.343 5.6 332 10.3 102950 37
2010-05-18 08:35:33 51°30.778 2°47.339 5.6 329 10.3 102950 37
2010-05-18 08:35:38 51°30.796 2°47.335 5.8 331 10.3 102950 37
2010-05-18 08:35:43 51°30.814 2°47.331 5.8 330 10.3 102960 37
2010-05-18 08:35:48 51°30.832 2°47.327 5.7 330 10.3 102960 37
2010-05-18 08:35:53 51°30.85 2°47.323 5.4 330 10.3 102950 36
2010-05-18 08:35:58 51°30.868 2°47.32 5.8 280 10.3 102950 36
2010-05-18 08:36:02 51°30.882 2°47.316 5.6 330 10.3 102960 36
2010-05-18 08:36:08 51°30.904 2°47.313 5.4 330 10.3 102960 36
2010-05-18 08:36:13 51°30.922 2°47.309 5.9 331 10.3 102950 36